Year,Month,Day,Hour,Minute,Value (Times are PST for temperature in C)
2014,07,16,00,00,13.30
2014,07,16,00,01,13.30
2014,07,16,00,02,13.30
2014,07,16,00,03,13.30
2014,07,16,00,04,13.30
2014,07,16,00,05,13.30
2014,07,16,00,06,13.30
2014,07,16,00,07,13.30
2014,07,16,00,08,13.20
2014,07,16,00,09,13.20
2014,07,16,00,10,13.20
2014,07,16,00,11,13.20
2014,07,16,00,12,13.20
2014,07,16,00,13,13.10
2014,07,16,00,14,13.10
2014,07,16,00,15,13.10
2014,07,16,00,16,13.10
2014,07,16,00,17,13.10
2014,07,16,00,18,13.00
2014,07,16,00,19,13.00
2014,07,16,00,20,13.00
2014,07,16,00,21,12.90
2014,07,16,00,22,12.90
2014,07,16,00,23,12.90
2014,07,16,00,24,12.90
2014,07,16,00,25,12.80
2014,07,16,00,26,12.80
2014,07,16,00,27,12.80
2014,07,16,00,28,12.80
2014,07,16,00,29,12.80
2014,07,16,00,30,12.80
2014,07,16,00,31,12.80
2014,07,16,00,32,12.80
2014,07,16,00,33,12.70
2014,07,16,00,34,12.70
2014,07,16,00,35,12.70
2014,07,16,00,36,12.60
2014,07,16,00,37,12.60
2014,07,16,00,38,12.60
2014,07,16,00,39,12.60
2014,07,16,00,40,12.60
2014,07,16,00,41,12.60
2014,07,16,00,42,12.50
2014,07,16,00,43,12.50
2014,07,16,00,44,12.50
2014,07,16,00,45,12.50
2014,07,16,00,46,12.50
2014,07,16,00,47,12.50
2014,07,16,00,48,12.50
2014,07,16,00,49,12.50
2014,07,16,00,50,12.50
2014,07,16,00,51,12.40
2014,07,16,00,52,12.40
2014,07,16,00,53,12.40
2014,07,16,00,54,12.40
2014,07,16,00,55,12.40
2014,07,16,00,56,12.30
2014,07,16,00,57,12.30
2014,07,16,00,58,12.30
2014,07,16,00,59,12.30
2014,07,16,01,00,12.30
2014,07,16,01,01,12.30
2014,07,16,01,02,12.30
2014,07,16,01,03,12.30
2014,07,16,01,04,12.30
2014,07,16,01,05,12.30
2014,07,16,01,06,12.30
2014,07,16,01,07,12.30
2014,07,16,01,08,12.30
2014,07,16,01,09,12.30
2014,07,16,01,10,12.30
2014,07,16,01,11,12.30
2014,07,16,01,12,12.30
2014,07,16,01,13,12.30
2014,07,16,01,14,12.30
2014,07,16,01,15,12.30
2014,07,16,01,16,12.30
2014,07,16,01,17,12.30
2014,07,16,01,18,12.30
2014,07,16,01,19,12.20
2014,07,16,01,20,12.20
2014,07,16,01,21,12.20
2014,07,16,01,22,12.20
2014,07,16,01,23,12.20
2014,07,16,01,24,12.20
2014,07,16,01,25,12.10
2014,07,16,01,26,12.10
2014,07,16,01,27,12.10
2014,07,16,01,28,12.10
2014,07,16,01,29,12.10
2014,07,16,01,30,12.00
2014,07,16,01,31,12.00
2014,07,16,01,32,12.00
2014,07,16,01,33,12.00
2014,07,16,01,34,12.00
2014,07,16,01,35,12.00
2014,07,16,01,36,12.00
2014,07,16,01,37,12.00
2014,07,16,01,38,12.00
2014,07,16,01,39,12.00
2014,07,16,01,40,12.00
2014,07,16,01,41,12.00
2014,07,16,01,42,12.00
2014,07,16,01,43,12.00
2014,07,16,01,44,12.00
2014,07,16,01,45,12.10
2014,07,16,01,46,12.10
2014,07,16,01,47,12.10
2014,07,16,01,48,12.10
2014,07,16,01,49,12.10
2014,07,16,01,50,12.10
2014,07,16,01,51,12.20
2014,07,16,01,52,12.20
2014,07,16,01,53,12.20
2014,07,16,01,54,12.20
2014,07,16,01,55,12.30
2014,07,16,01,56,12.30
2014,07,16,01,57,12.30
2014,07,16,01,58,12.30
2014,07,16,01,59,12.30
2014,07,16,02,00,12.30
2014,07,16,02,01,12.30
2014,07,16,02,02,12.30
2014,07,16,02,03,12.30
2014,07,16,02,04,12.20
2014,07,16,02,05,12.20
2014,07,16,02,06,12.20
2014,07,16,02,07,12.20
2014,07,16,02,08,12.10
2014,07,16,02,09,12.10
2014,07,16,02,10,12.10
2014,07,16,02,11,12.10
2014,07,16,02,12,12.10
2014,07,16,02,13,12.10
2014,07,16,02,14,12.20
2014,07,16,02,15,12.20
2014,07,16,02,16,12.20
2014,07,16,02,17,12.10
2014,07,16,02,18,12.10
2014,07,16,02,19,12.10
2014,07,16,02,20,12.10
2014,07,16,02,21,12.10
2014,07,16,02,22,12.10
2014,07,16,02,23,12.10
2014,07,16,02,24,12.10
2014,07,16,02,25,12.10
2014,07,16,02,26,12.00
2014,07,16,02,27,12.00
2014,07,16,02,28,12.00
2014,07,16,02,29,12.00
2014,07,16,02,30,12.00
2014,07,16,02,31,11.90
2014,07,16,02,32,11.90
2014,07,16,02,33,11.90
2014,07,16,02,34,11.90
2014,07,16,02,35,11.90
2014,07,16,02,36,11.90
2014,07,16,02,37,11.90
2014,07,16,02,38,11.90
2014,07,16,02,39,11.90
2014,07,16,02,40,11.90
2014,07,16,02,41,11.80
2014,07,16,02,42,11.80
2014,07,16,02,43,11.90
2014,07,16,02,44,11.90
2014,07,16,02,45,11.90
2014,07,16,02,46,11.90
2014,07,16,02,47,11.90
2014,07,16,02,48,11.90
2014,07,16,02,49,11.90
2014,07,16,02,50,12.00
2014,07,16,02,51,12.00
2014,07,16,02,52,12.00
2014,07,16,02,53,12.00
2014,07,16,02,54,12.00
2014,07,16,02,55,12.00
2014,07,16,02,56,12.00
2014,07,16,02,57,12.00
2014,07,16,02,58,12.00
2014,07,16,02,59,11.90
2014,07,16,03,00,11.90
2014,07,16,03,01,11.90
2014,07,16,03,02,11.90
2014,07,16,03,03,11.80
2014,07,16,03,04,11.80
2014,07,16,03,05,11.80
2014,07,16,03,06,11.80
2014,07,16,03,07,11.80
2014,07,16,03,08,11.80
2014,07,16,03,09,11.80
2014,07,16,03,10,11.80
2014,07,16,03,11,11.70
2014,07,16,03,12,11.70
2014,07,16,03,13,11.70
2014,07,16,03,14,11.60
2014,07,16,03,15,11.60
2014,07,16,03,16,11.60
2014,07,16,03,17,11.60
2014,07,16,03,18,11.60
2014,07,16,03,19,11.60
2014,07,16,03,20,11.60
2014,07,16,03,21,11.60
2014,07,16,03,22,11.60
2014,07,16,03,23,11.60
2014,07,16,03,24,11.60
2014,07,16,03,25,11.60
2014,07,16,03,26,11.60
2014,07,16,03,27,11.60
2014,07,16,03,28,11.60
2014,07,16,03,29,11.60
2014,07,16,03,30,11.60
2014,07,16,03,31,11.60
2014,07,16,03,32,11.60
2014,07,16,03,33,11.60
2014,07,16,03,34,11.60
2014,07,16,03,35,11.60
2014,07,16,03,36,11.60
2014,07,16,03,37,11.60
2014,07,16,03,38,11.50
2014,07,16,03,39,11.40
2014,07,16,03,40,11.40
2014,07,16,03,41,11.40
2014,07,16,03,42,11.40
2014,07,16,03,43,11.40
2014,07,16,03,44,11.40
2014,07,16,03,45,11.40
2014,07,16,03,46,11.40
2014,07,16,03,47,11.40
2014,07,16,03,48,11.40
2014,07,16,03,49,11.40
2014,07,16,03,50,11.40
2014,07,16,03,51,11.40
2014,07,16,03,52,11.40
2014,07,16,03,53,11.40
2014,07,16,03,54,11.40
2014,07,16,03,55,11.40
2014,07,16,03,56,11.40
2014,07,16,03,57,11.40
2014,07,16,03,58,11.40
2014,07,16,03,59,11.40
2014,07,16,04,00,11.40
2014,07,16,04,01,11.40
2014,07,16,04,02,11.40
2014,07,16,04,03,11.40
2014,07,16,04,04,11.40
2014,07,16,04,05,11.40
2014,07,16,04,06,11.40
2014,07,16,04,07,11.40
2014,07,16,04,08,11.40
2014,07,16,04,09,11.40
2014,07,16,04,10,11.40
2014,07,16,04,11,11.40
2014,07,16,04,12,11.40
2014,07,16,04,13,11.40
2014,07,16,04,14,11.40
2014,07,16,04,15,11.40
2014,07,16,04,16,11.40
2014,07,16,04,17,11.40
2014,07,16,04,18,11.40
2014,07,16,04,19,11.40
2014,07,16,04,20,11.40
2014,07,16,04,21,11.40
2014,07,16,04,22,11.40
2014,07,16,04,23,11.40
2014,07,16,04,24,11.30
2014,07,16,04,25,11.30
2014,07,16,04,26,11.30
2014,07,16,04,27,11.30
2014,07,16,04,28,11.30
2014,07,16,04,29,11.30
2014,07,16,04,30,11.30
2014,07,16,04,31,11.30
2014,07,16,04,32,11.20
2014,07,16,04,33,11.20
2014,07,16,04,34,11.20
2014,07,16,04,35,11.20
2014,07,16,04,36,11.20
2014,07,16,04,37,11.20
2014,07,16,04,38,11.20
2014,07,16,04,39,11.10
2014,07,16,04,40,11.10
2014,07,16,04,41,11.10
2014,07,16,04,42,11.10
2014,07,16,04,43,11.10
2014,07,16,04,44,11.10
2014,07,16,04,45,11.10
2014,07,16,04,46,11.10
2014,07,16,04,47,11.10
2014,07,16,04,48,11.10
2014,07,16,04,49,11.10
2014,07,16,04,50,11.10
2014,07,16,04,51,11.10
2014,07,16,04,52,11.10
2014,07,16,04,53,11.10
2014,07,16,04,54,11.10
2014,07,16,04,55,11.10
2014,07,16,04,56,11.10
2014,07,16,04,57,11.10
2014,07,16,04,58,11.00
2014,07,16,04,59,10.90
2014,07,16,05,00,10.90
2014,07,16,05,01,10.90
2014,07,16,05,02,10.90
2014,07,16,05,03,10.90
2014,07,16,05,04,10.90
2014,07,16,05,05,10.90
2014,07,16,05,06,10.90
2014,07,16,05,07,10.90
2014,07,16,05,08,10.90
2014,07,16,05,09,10.90
2014,07,16,05,10,10.90
2014,07,16,05,11,10.90
2014,07,16,05,12,10.90
2014,07,16,05,13,10.90
2014,07,16,05,14,10.90
2014,07,16,05,15,10.90
2014,07,16,05,16,10.90
2014,07,16,05,17,10.90
2014,07,16,05,18,10.90
2014,07,16,05,19,10.90
2014,07,16,05,20,10.90
2014,07,16,05,21,11.00
2014,07,16,05,22,11.10
2014,07,16,05,23,11.10
2014,07,16,05,24,11.10
2014,07,16,05,25,11.10
2014,07,16,05,26,11.10
2014,07,16,05,27,11.10
2014,07,16,05,28,11.10
2014,07,16,05,29,11.10
2014,07,16,05,30,11.10
2014,07,16,05,31,11.10
2014,07,16,05,32,11.10
2014,07,16,05,33,11.10
2014,07,16,05,34,11.10
2014,07,16,05,35,11.10
2014,07,16,05,36,11.10
2014,07,16,05,37,11.10
2014,07,16,05,38,11.10
2014,07,16,05,39,11.10
2014,07,16,05,40,11.00
2014,07,16,05,41,10.90
2014,07,16,05,42,10.90
2014,07,16,05,43,10.90
2014,07,16,05,44,11.00
2014,07,16,05,45,11.10
2014,07,16,05,46,11.10
2014,07,16,05,47,11.10
2014,07,16,05,48,11.10
2014,07,16,05,49,11.10
2014,07,16,05,50,11.10
2014,07,16,05,51,11.10
2014,07,16,05,52,11.10
2014,07,16,05,53,11.10
2014,07,16,05,54,11.10
2014,07,16,05,55,11.10
2014,07,16,05,56,11.10
2014,07,16,05,57,11.10
2014,07,16,05,58,11.10
2014,07,16,05,59,11.10
2014,07,16,06,00,11.10
2014,07,16,06,01,11.10
2014,07,16,06,02,11.10
2014,07,16,06,03,11.10
2014,07,16,06,04,11.20
2014,07,16,06,05,11.20
2014,07,16,06,06,11.20
2014,07,16,06,07,11.20
2014,07,16,06,08,11.30
2014,07,16,06,09,11.30
2014,07,16,06,10,11.40
2014,07,16,06,11,11.40
2014,07,16,06,12,11.40
2014,07,16,06,13,11.40
2014,07,16,06,14,11.50
2014,07,16,06,15,11.60
2014,07,16,06,16,11.60
2014,07,16,06,17,11.60
2014,07,16,06,18,11.70
2014,07,16,06,19,11.80
2014,07,16,06,20,11.80
2014,07,16,06,21,11.80
2014,07,16,06,22,11.80
2014,07,16,06,23,11.90
2014,07,16,06,24,11.90
2014,07,16,06,25,12.00
2014,07,16,06,26,12.00
2014,07,16,06,27,12.10
2014,07,16,06,28,12.10
2014,07,16,06,29,12.20
2014,07,16,06,30,12.20
2014,07,16,06,31,12.30
2014,07,16,06,32,12.30
2014,07,16,06,33,12.40
2014,07,16,06,34,12.50
2014,07,16,06,35,12.50
2014,07,16,06,36,12.60
2014,07,16,06,37,12.70
2014,07,16,06,38,12.80
2014,07,16,06,39,12.90
2014,07,16,06,40,13.00
2014,07,16,06,41,13.10
2014,07,16,06,42,13.20
2014,07,16,06,43,13.30
2014,07,16,06,44,13.40
2014,07,16,06,45,13.50
2014,07,16,06,46,13.50
2014,07,16,06,47,13.60
2014,07,16,06,48,13.60
2014,07,16,06,49,13.60
2014,07,16,06,50,13.70
2014,07,16,06,51,13.70
2014,07,16,06,52,13.70
2014,07,16,06,53,13.70
2014,07,16,06,54,13.80
2014,07,16,06,55,13.80
2014,07,16,06,56,13.90
2014,07,16,06,57,13.90
2014,07,16,06,58,13.90
2014,07,16,06,59,13.90
2014,07,16,07,00,14.00
2014,07,16,07,01,14.10
2014,07,16,07,02,14.20
2014,07,16,07,03,14.20
2014,07,16,07,04,14.20
2014,07,16,07,05,14.20
2014,07,16,07,06,14.20
2014,07,16,07,07,14.20
2014,07,16,07,08,14.20
2014,07,16,07,09,14.30
2014,07,16,07,10,14.30
2014,07,16,07,11,14.30
2014,07,16,07,12,14.40
2014,07,16,07,13,14.40
2014,07,16,07,14,14.40
2014,07,16,07,15,14.40
2014,07,16,07,16,14.50
2014,07,16,07,17,14.50
2014,07,16,07,18,14.50
2014,07,16,07,19,14.60
2014,07,16,07,20,14.60
2014,07,16,07,21,14.60
2014,07,16,07,22,14.70
2014,07,16,07,23,14.70
2014,07,16,07,24,14.80
2014,07,16,07,25,14.80
2014,07,16,07,26,14.80
2014,07,16,07,27,14.90
2014,07,16,07,28,14.90
2014,07,16,07,29,15.00
2014,07,16,07,30,15.00
2014,07,16,07,31,15.10
2014,07,16,07,32,15.10
2014,07,16,07,33,15.20
2014,07,16,07,34,15.20
2014,07,16,07,35,15.30
2014,07,16,07,36,15.30
2014,07,16,07,37,15.30
2014,07,16,07,38,15.40
2014,07,16,07,39,15.40
2014,07,16,07,40,15.50
2014,07,16,07,41,15.50
2014,07,16,07,42,15.60
2014,07,16,07,43,15.70
2014,07,16,07,44,15.80
2014,07,16,07,45,15.80
2014,07,16,07,46,15.90
2014,07,16,07,47,16.00
2014,07,16,07,48,16.10
2014,07,16,07,49,16.10
2014,07,16,07,50,16.10
2014,07,16,07,51,16.10
2014,07,16,07,52,16.10
2014,07,16,07,53,16.20
2014,07,16,07,54,16.30
2014,07,16,07,55,16.30
2014,07,16,07,56,16.40
2014,07,16,07,57,16.50
2014,07,16,07,58,16.60
2014,07,16,07,59,16.60
2014,07,16,08,00,16.70
2014,07,16,08,01,16.70
2014,07,16,08,02,16.70
2014,07,16,08,03,16.70
2014,07,16,08,04,16.70
2014,07,16,08,05,16.80
2014,07,16,08,06,16.80
2014,07,16,08,07,16.80
2014,07,16,08,08,16.80
2014,07,16,08,09,16.80
2014,07,16,08,10,16.80
2014,07,16,08,11,16.80
2014,07,16,08,12,16.90
2014,07,16,08,13,16.90
2014,07,16,08,14,16.90
2014,07,16,08,15,16.90
2014,07,16,08,16,17.00
2014,07,16,08,17,17.00
2014,07,16,08,18,17.10
2014,07,16,08,19,17.10
2014,07,16,08,20,17.20
2014,07,16,08,21,17.20
2014,07,16,08,22,17.20
2014,07,16,08,23,17.20
2014,07,16,08,24,17.20
2014,07,16,08,25,17.30
2014,07,16,08,26,17.30
2014,07,16,08,27,17.30
2014,07,16,08,28,17.30
2014,07,16,08,29,17.40
2014,07,16,08,30,17.40
2014,07,16,08,31,17.40
2014,07,16,08,32,17.50
2014,07,16,08,33,17.60
2014,07,16,08,34,17.70
2014,07,16,08,35,17.70
2014,07,16,08,36,17.80
2014,07,16,08,37,17.80
2014,07,16,08,38,17.90
2014,07,16,08,39,17.90
2014,07,16,08,40,17.90
2014,07,16,08,41,18.10
2014,07,16,08,42,18.10
2014,07,16,08,43,18.20
2014,07,16,08,44,18.20
2014,07,16,08,45,18.30
2014,07,16,08,46,18.40
2014,07,16,08,47,18.50
2014,07,16,08,48,18.60
2014,07,16,08,49,18.70
2014,07,16,08,50,18.80
2014,07,16,08,51,18.90
2014,07,16,08,52,18.90
2014,07,16,08,53,19.00
2014,07,16,08,54,19.10
2014,07,16,08,55,19.10
2014,07,16,08,56,19.10
2014,07,16,08,57,19.20
2014,07,16,08,58,19.30
2014,07,16,08,59,19.30
2014,07,16,09,00,19.40
2014,07,16,09,01,19.50
2014,07,16,09,02,19.50
2014,07,16,09,03,19.60
2014,07,16,09,04,19.60
2014,07,16,09,05,19.70
2014,07,16,09,06,19.70
2014,07,16,09,07,19.70
2014,07,16,09,08,19.70
2014,07,16,09,09,19.70
2014,07,16,09,10,19.70
2014,07,16,09,11,19.70
2014,07,16,09,12,19.80
2014,07,16,09,13,19.70
2014,07,16,09,14,19.70
2014,07,16,09,15,19.70
2014,07,16,09,16,19.60
2014,07,16,09,17,19.60
2014,07,16,09,18,19.50
2014,07,16,09,19,19.40
2014,07,16,09,20,19.40
2014,07,16,09,21,19.30
2014,07,16,09,22,19.30
2014,07,16,09,23,19.20
2014,07,16,09,24,19.20
2014,07,16,09,25,19.10
2014,07,16,09,26,19.10
2014,07,16,09,27,19.00
2014,07,16,09,28,18.90
2014,07,16,09,29,18.90
2014,07,16,09,30,18.90
2014,07,16,09,31,18.90
2014,07,16,09,32,18.90
2014,07,16,09,33,18.90
2014,07,16,09,34,18.90
2014,07,16,09,35,18.90
2014,07,16,09,36,18.90
2014,07,16,09,37,18.90
2014,07,16,09,38,18.90
2014,07,16,09,39,18.90
2014,07,16,09,40,18.90
2014,07,16,09,41,18.80
2014,07,16,09,42,18.80
2014,07,16,09,43,18.80
2014,07,16,09,44,18.80
2014,07,16,09,45,18.80
2014,07,16,09,46,18.80
2014,07,16,09,47,18.90
2014,07,16,09,48,19.00
2014,07,16,09,49,19.10
2014,07,16,09,50,19.10
2014,07,16,09,51,19.30
2014,07,16,09,52,19.30
2014,07,16,09,53,19.40
2014,07,16,09,54,19.50
2014,07,16,09,55,19.60
2014,07,16,09,56,19.60
2014,07,16,09,57,19.70
2014,07,16,09,58,19.80
2014,07,16,09,59,19.80
2014,07,16,10,00,19.90
2014,07,16,10,01,19.90
2014,07,16,10,02,19.90
2014,07,16,10,03,19.90
2014,07,16,10,04,19.90
2014,07,16,10,05,19.90
2014,07,16,10,06,19.80
2014,07,16,10,07,19.80
2014,07,16,10,08,19.80
2014,07,16,10,09,19.80
2014,07,16,10,10,19.80
2014,07,16,10,11,19.70
2014,07,16,10,12,19.70
2014,07,16,10,13,19.70
2014,07,16,10,14,19.70
2014,07,16,10,15,19.70
2014,07,16,10,16,19.70
2014,07,16,10,17,19.70
2014,07,16,10,18,19.70
2014,07,16,10,19,19.80
2014,07,16,10,20,19.80
2014,07,16,10,21,19.80
2014,07,16,10,22,19.90
2014,07,16,10,23,19.90
2014,07,16,10,24,19.90
2014,07,16,10,25,20.00
2014,07,16,10,26,20.10
2014,07,16,10,27,20.10
2014,07,16,10,28,20.10
2014,07,16,10,29,20.20
2014,07,16,10,30,20.20
2014,07,16,10,31,20.20
2014,07,16,10,32,20.20
2014,07,16,10,33,20.20
2014,07,16,10,34,20.20
2014,07,16,10,35,20.20
2014,07,16,10,36,20.20
2014,07,16,10,37,20.20
2014,07,16,10,38,20.20
2014,07,16,10,39,20.20
2014,07,16,10,40,20.30
2014,07,16,10,41,20.40
2014,07,16,10,42,20.40
2014,07,16,10,43,20.50
2014,07,16,10,44,20.60
2014,07,16,10,45,20.70
2014,07,16,10,46,20.80
2014,07,16,10,47,20.80
2014,07,16,10,48,20.90
2014,07,16,10,49,21.00
2014,07,16,10,50,21.10
2014,07,16,10,51,21.10
2014,07,16,10,52,21.20
2014,07,16,10,53,21.30
2014,07,16,10,54,21.30
2014,07,16,10,55,21.30
2014,07,16,10,56,21.30
2014,07,16,10,57,21.40
2014,07,16,10,58,21.40
2014,07,16,10,59,21.40
2014,07,16,11,00,21.40
2014,07,16,11,01,21.40
2014,07,16,11,02,21.40
2014,07,16,11,03,21.40
2014,07,16,11,04,21.40
2014,07,16,11,05,21.30
2014,07,16,11,06,21.30
2014,07,16,11,07,21.30
2014,07,16,11,08,21.30
2014,07,16,11,09,21.30
2014,07,16,11,10,21.20
2014,07,16,11,11,21.20
2014,07,16,11,12,21.20
2014,07,16,11,13,21.20
2014,07,16,11,14,21.10
2014,07,16,11,15,21.00
2014,07,16,11,16,21.00
2014,07,16,11,17,20.80
2014,07,16,11,18,20.70
2014,07,16,11,19,20.60
2014,07,16,11,20,20.60
2014,07,16,11,21,20.50
2014,07,16,11,22,20.30
2014,07,16,11,23,20.20
2014,07,16,11,24,20.10
2014,07,16,11,25,19.90
2014,07,16,11,26,19.80
2014,07,16,11,27,19.70
2014,07,16,11,28,19.50
2014,07,16,11,29,19.40
2014,07,16,11,30,19.40
2014,07,16,11,31,19.50
2014,07,16,11,32,19.50
2014,07,16,11,33,19.60
2014,07,16,11,34,19.60
2014,07,16,11,35,19.70
2014,07,16,11,36,19.80
2014,07,16,11,37,19.90
2014,07,16,11,38,19.90
2014,07,16,11,39,20.00
2014,07,16,11,40,20.10
2014,07,16,11,41,20.20
2014,07,16,11,42,20.20
2014,07,16,11,43,20.20
2014,07,16,11,44,20.20
2014,07,16,11,45,20.20
2014,07,16,11,46,20.20
2014,07,16,11,47,20.20
2014,07,16,11,48,20.20
2014,07,16,11,49,20.20
2014,07,16,11,50,20.20
2014,07,16,11,51,20.20
2014,07,16,11,52,20.20
2014,07,16,11,53,20.20
2014,07,16,11,54,20.20
2014,07,16,11,55,20.30
2014,07,16,11,56,20.30
2014,07,16,11,57,20.40
2014,07,16,11,58,20.50
2014,07,16,11,59,20.50
2014,07,16,12,00,20.60
2014,07,16,12,01,20.70
2014,07,16,12,02,20.70
2014,07,16,12,03,20.80
2014,07,16,12,04,20.90
2014,07,16,12,05,21.00
2014,07,16,12,06,21.10
2014,07,16,12,07,21.20
2014,07,16,12,08,21.30
2014,07,16,12,09,21.30
2014,07,16,12,10,21.30
2014,07,16,12,11,21.40
2014,07,16,12,12,21.50
2014,07,16,12,13,21.60
2014,07,16,12,14,21.60
2014,07,16,12,15,21.60
2014,07,16,12,16,21.70
2014,07,16,12,17,21.80
2014,07,16,12,18,21.70
2014,07,16,12,19,21.70
2014,07,16,12,20,21.80
2014,07,16,12,21,21.80
2014,07,16,12,22,21.90
2014,07,16,12,23,21.90
2014,07,16,12,24,22.00
2014,07,16,12,25,22.00
2014,07,16,12,26,22.00
2014,07,16,12,27,22.10
2014,07,16,12,28,22.10
2014,07,16,12,29,22.20
2014,07,16,12,30,22.20
2014,07,16,12,31,22.20
2014,07,16,12,32,22.30
2014,07,16,12,33,22.30
2014,07,16,12,34,22.40
2014,07,16,12,35,22.40
2014,07,16,12,36,22.50
2014,07,16,12,37,22.60
2014,07,16,12,38,22.60
2014,07,16,12,39,22.50
2014,07,16,12,40,22.50
2014,07,16,12,41,22.40
2014,07,16,12,42,22.40
2014,07,16,12,43,22.30
2014,07,16,12,44,22.30
2014,07,16,12,45,22.40
2014,07,16,12,46,22.40
2014,07,16,12,47,22.40
2014,07,16,12,48,22.40
2014,07,16,12,49,22.50
2014,07,16,12,50,22.40
2014,07,16,12,51,22.40
2014,07,16,12,52,22.40
2014,07,16,12,53,22.30
2014,07,16,12,54,22.20
2014,07,16,12,55,22.20
2014,07,16,12,56,22.20
2014,07,16,12,57,22.20
2014,07,16,12,58,22.10
2014,07,16,12,59,22.10
2014,07,16,13,00,22.10
2014,07,16,13,01,22.10
2014,07,16,13,02,22.10
2014,07,16,13,03,22.10
2014,07,16,13,04,22.10
2014,07,16,13,05,22.10
2014,07,16,13,06,22.10
2014,07,16,13,07,22.10
2014,07,16,13,08,22.10
2014,07,16,13,09,22.10
2014,07,16,13,10,22.20
2014,07,16,13,11,22.20
2014,07,16,13,12,22.30
2014,07,16,13,13,22.40
2014,07,16,13,14,22.50
2014,07,16,13,15,22.60
2014,07,16,13,16,22.80
2014,07,16,13,17,22.90
2014,07,16,13,18,23.00
2014,07,16,13,19,23.10
2014,07,16,13,20,23.10
2014,07,16,13,21,23.00
2014,07,16,13,22,22.90
2014,07,16,13,23,22.80
2014,07,16,13,24,22.80
2014,07,16,13,25,22.80
2014,07,16,13,26,22.90
2014,07,16,13,27,22.90
2014,07,16,13,28,22.90
2014,07,16,13,29,23.00
2014,07,16,13,30,23.10
2014,07,16,13,31,23.10
2014,07,16,13,32,23.20
2014,07,16,13,33,23.30
2014,07,16,13,34,23.30
2014,07,16,13,35,23.30
2014,07,16,13,36,23.30
2014,07,16,13,37,23.30
2014,07,16,13,38,23.40
2014,07,16,13,39,23.60
2014,07,16,13,40,23.60
2014,07,16,13,41,23.70
2014,07,16,13,42,23.70
2014,07,16,13,43,23.80
2014,07,16,13,44,23.90
2014,07,16,13,45,23.90
2014,07,16,13,46,23.90
2014,07,16,13,47,23.90
2014,07,16,13,48,23.90
2014,07,16,13,49,23.90
2014,07,16,13,50,23.80
2014,07,16,13,51,23.70
2014,07,16,13,52,23.70
2014,07,16,13,53,23.60
2014,07,16,13,54,23.60
2014,07,16,13,55,23.70
2014,07,16,13,56,23.70
2014,07,16,13,57,23.60
2014,07,16,13,58,23.50
2014,07,16,13,59,23.30
2014,07,16,14,00,23.30
2014,07,16,14,01,23.20
2014,07,16,14,02,23.10
2014,07,16,14,03,23.10
2014,07,16,14,04,23.10
2014,07,16,14,05,23.10
2014,07,16,14,06,23.10
2014,07,16,14,07,23.20
2014,07,16,14,08,23.20
2014,07,16,14,09,23.20
2014,07,16,14,10,23.30
2014,07,16,14,11,23.30
2014,07,16,14,12,23.30
2014,07,16,14,13,23.40
2014,07,16,14,14,23.60
2014,07,16,14,15,23.60
2014,07,16,14,16,23.70
2014,07,16,14,17,23.70
2014,07,16,14,18,23.80
2014,07,16,14,19,23.80
2014,07,16,14,20,23.80
2014,07,16,14,21,23.80
2014,07,16,14,22,23.80
2014,07,16,14,23,23.80
2014,07,16,14,24,23.80
2014,07,16,14,25,23.90
2014,07,16,14,26,23.90
2014,07,16,14,27,23.90
2014,07,16,14,28,23.90
2014,07,16,14,29,23.90
2014,07,16,14,30,23.80
2014,07,16,14,31,23.80
2014,07,16,14,32,23.80
2014,07,16,14,33,23.80
2014,07,16,14,34,23.80
2014,07,16,14,35,23.80
2014,07,16,14,36,23.90
2014,07,16,14,37,23.90
2014,07,16,14,38,24.00
2014,07,16,14,39,24.10
2014,07,16,14,40,24.20
2014,07,16,14,41,24.30
2014,07,16,14,42,24.30
2014,07,16,14,43,24.40
2014,07,16,14,44,24.40
2014,07,16,14,45,24.50
2014,07,16,14,46,24.50
2014,07,16,14,47,24.50
2014,07,16,14,48,24.60
2014,07,16,14,49,24.60
2014,07,16,14,50,24.70
2014,07,16,14,51,24.80
2014,07,16,14,52,24.80
2014,07,16,14,53,24.70
2014,07,16,14,54,24.70
2014,07,16,14,55,24.60
2014,07,16,14,56,24.60
2014,07,16,14,57,24.60
2014,07,16,14,58,24.70
2014,07,16,14,59,24.70
2014,07,16,15,00,24.70
2014,07,16,15,01,24.80
2014,07,16,15,02,24.80
2014,07,16,15,03,24.80
2014,07,16,15,04,24.80
2014,07,16,15,05,24.80
2014,07,16,15,06,24.70
2014,07,16,15,07,24.60
2014,07,16,15,08,24.60
2014,07,16,15,09,24.50
2014,07,16,15,10,24.40
2014,07,16,15,11,24.30
2014,07,16,15,12,24.20
2014,07,16,15,13,24.10
2014,07,16,15,14,24.10
2014,07,16,15,15,24.10
2014,07,16,15,16,24.10
2014,07,16,15,17,24.10
2014,07,16,15,18,24.10
2014,07,16,15,19,24.10
2014,07,16,15,20,24.10
2014,07,16,15,21,24.10
2014,07,16,15,22,24.10
2014,07,16,15,23,24.10
2014,07,16,15,24,24.10
2014,07,16,15,25,24.10
2014,07,16,15,26,24.10
2014,07,16,15,27,24.10
2014,07,16,15,28,24.10
2014,07,16,15,29,24.10
2014,07,16,15,30,24.20
2014,07,16,15,31,24.30
2014,07,16,15,32,24.30
2014,07,16,15,33,24.30
2014,07,16,15,34,24.30
2014,07,16,15,35,24.30
2014,07,16,15,36,24.30
2014,07,16,15,37,24.40
2014,07,16,15,38,24.50
2014,07,16,15,39,24.50
2014,07,16,15,40,24.60
2014,07,16,15,41,24.70
2014,07,16,15,42,24.80
2014,07,16,15,43,24.90
2014,07,16,15,44,25.00
2014,07,16,15,45,25.10
2014,07,16,15,46,25.20
2014,07,16,15,47,25.30
2014,07,16,15,48,25.30
2014,07,16,15,49,25.40
2014,07,16,15,50,25.40
2014,07,16,15,51,25.50
2014,07,16,15,52,25.60
2014,07,16,15,53,25.70
2014,07,16,15,54,25.70
2014,07,16,15,55,25.80
2014,07,16,15,56,25.90
2014,07,16,15,57,25.90
2014,07,16,15,58,25.90
2014,07,16,15,59,25.90
2014,07,16,16,00,25.90
2014,07,16,16,01,25.90
2014,07,16,16,02,25.90
2014,07,16,16,03,25.90
2014,07,16,16,04,25.80
2014,07,16,16,05,25.80
2014,07,16,16,06,25.70
2014,07,16,16,07,25.70
2014,07,16,16,08,25.70
2014,07,16,16,09,25.70
2014,07,16,16,10,25.60
2014,07,16,16,11,25.50
2014,07,16,16,12,25.40
2014,07,16,16,13,25.30
2014,07,16,16,14,25.20
2014,07,16,16,15,25.20
2014,07,16,16,16,25.20
2014,07,16,16,17,25.20
2014,07,16,16,18,25.20
2014,07,16,16,19,25.10
2014,07,16,16,20,25.10
2014,07,16,16,21,25.00
2014,07,16,16,22,25.00
2014,07,16,16,23,25.00
2014,07,16,16,24,25.00
2014,07,16,16,25,25.10
2014,07,16,16,26,25.10
2014,07,16,16,27,25.10
2014,07,16,16,28,25.00
2014,07,16,16,29,25.00
2014,07,16,16,30,25.00
2014,07,16,16,31,25.10
2014,07,16,16,32,25.10
2014,07,16,16,33,25.10
2014,07,16,16,34,25.10
2014,07,16,16,35,25.10
2014,07,16,16,36,25.10
2014,07,16,16,37,25.10
2014,07,16,16,38,25.10
2014,07,16,16,39,25.10
2014,07,16,16,40,25.10
2014,07,16,16,41,25.10
2014,07,16,16,42,25.10
2014,07,16,16,43,25.10
2014,07,16,16,44,25.20
2014,07,16,16,45,25.20
2014,07,16,16,46,25.20
2014,07,16,16,47,25.30
2014,07,16,16,48,25.30
2014,07,16,16,49,25.40
2014,07,16,16,50,25.40
2014,07,16,16,51,25.40
2014,07,16,16,52,25.40
2014,07,16,16,53,25.50
2014,07,16,16,54,25.50
2014,07,16,16,55,25.60
2014,07,16,16,56,25.60
2014,07,16,16,57,25.60
2014,07,16,16,58,25.50
2014,07,16,16,59,25.40
2014,07,16,17,00,25.40
2014,07,16,17,01,25.30
2014,07,16,17,02,25.20
2014,07,16,17,03,25.20
2014,07,16,17,04,25.10
2014,07,16,17,05,25.00
2014,07,16,17,06,24.90
2014,07,16,17,07,24.90
2014,07,16,17,08,24.80
2014,07,16,17,09,24.80
2014,07,16,17,10,24.70
2014,07,16,17,11,24.70
2014,07,16,17,12,24.70
2014,07,16,17,13,24.70
2014,07,16,17,14,24.70
2014,07,16,17,15,24.60
2014,07,16,17,16,24.50
2014,07,16,17,17,24.40
2014,07,16,17,18,24.30
2014,07,16,17,19,24.20